Regional Weather Roundup
Issued by NWS

Home | Current Version | Previous Version | Text Only | Print | Product List | Glossary Off
Versions: 1 2 3 4 5 6 7 8 9 10 11 12 13 14 15 16 17 18 19 20 21 22 23 24 25 26 27 28 29 30 31 32 33 34 35 36 37 38 39 40 41 42 43 44 45 46 47 48 49 50

000
ASUS43 KLSX 181759
RWRMO

WEATHER SUMMARY FOR MISSOURI
NATIONAL WEATHER SERVICE SPRINGFIELD MO
100 PM CDT THU SEP 18 2014

NOTE: "FAIR" INDICATES FEW OR NO CLOUDS BELOW 12,000 FEET WITH NO
       SIGNIFICANT WEATHER AND/OR OBSTRUCTIONS TO VISIBILITY.
       CURRENT SKY AND/OR WEATHER CONDITIONS ARE NOT AVAILABLE FOR
       CHILLICOTHE AND FARMINGTON.

MOZ001>031-035>038-043-044-053-054-181900-
...NORTHERN AND WESTERN MISSOURI...

CITY           SKY/WX    TMP DP  RH WIND       PRES   REMARKS
KANSAS CTY INT CLOUDY    66  61  84 E10       30.03F
6HR MIN TEMP:  59; 6HR MAX TEMP:  66;

KANSAS C DTWN  CLOUDY    67  61  81 E8        30.02F
6HR MIN TEMP:  62; 6HR MAX TEMP:  67;

LEE`S SUMMIT   CLOUDY    65  61  87 E10       30.03F
6HR MIN TEMP:  60; 6HR MAX TEMP:  65;

ST JOSEPH      CLOUDY    63  59  87 E7        30.05F
6HR MIN TEMP:  59; 6HR MAX TEMP:  63;

KIRKSVILLE     CLOUDY    67  57  70 SE13      30.08F
6HR MIN TEMP:  53; 6HR MAX TEMP:  67;


$$
MOZ066>068-077>081-088>096-101>105-181900-
...SOUTHWEST MISSOURI...

CITY           SKY/WX    TMP DP  RH WIND       PRES   REMARKS
SPRINGFIELD    CLOUDY    72  63  73 E8        29.99F
6HR MIN TEMP:  64; 6HR MAX TEMP:  73; 6HR PCP:  0.01;

JOPLIN         CLOUDY    70  64  81 E9        29.98F
6HR MIN TEMP:  63; 6HR MAX TEMP:  71; 6HR PCP:  0.11;


$$
MOZ032>034-039>042-045>050-055>058-069>072-181900-
...CENTRAL MISSOURI...

CITY           SKY/WX    TMP DP  RH WIND       PRES   REMARKS
COLUMBIA       PTSUNNY   69  61  75 SE9         N/A
6HR MIN TEMP:  59; 6HR MAX TEMP:  69;

JEFFERSON CITY CLOUDY    68  59  73 E8        30.03F
6HR MIN TEMP:  61; 6HR MAX TEMP:  69;

ROLLA          CLOUDY    65  59  81 E9        30.04S
6HR MIN TEMP:  58; 6HR MAX TEMP:  65;

SEDALIA        CLOUDY    67  61  81 E9        30.04F
6HR MIN TEMP:  61; 6HR MAX TEMP:  67;

OSAGE BEACH    CLOUDY    70  61  73 NE8       30.03F

$$
MOZ051-052-059>065-181900-
...EAST CENTRAL MISSOURI...

CITY           SKY/WX    TMP DP  RH WIND       PRES   REMARKS
ST LOUIS INTL  MOSUNNY   71  56  58 NE8       30.08F
6HR MIN TEMP:  62; 6HR MAX TEMP:  71;

SPIRIT OF STL  PTSUNNY   71  57  61 E9        30.06S
6HR MIN TEMP:  60; 6HR MAX TEMP:  71;

ST CHARLES     PTSUNNY   71  55  56 SE8       30.07F
6HR MIN TEMP:  60; 6HR MAX TEMP:  71;


$$
MOZ072>076-082>087-097>100-106>115-181900-
...SOUTH CENTRAL AND SOUTHEAST MISSOURI...

CITY           SKY/WX    TMP DP  RH WIND       PRES   REMARKS
CAPE GIRARDEAU PTSUNNY   73  59  61 NE9       30.04S
6HR MIN TEMP:  60; 6HR MAX TEMP:  73;

FARMINGTON     PTSUNNY   72  57  60 SE8       30.06F
6HR MIN TEMP:  61; 6HR MAX TEMP:  72;

POPLAR BLUFF   CLOUDY    72  57  59 NE8       30.01S
6HR MIN TEMP:  60; 6HR MAX TEMP:  72;

WEST PLAINS    CLOUDY    62  60  93 E5        30.05R
6HR MIN TEMP:  60; 6HR MAX TEMP:  62;


$$


USA.gov is the U.S. government's official web portal to all federal, state and local government web resources and services.